Find Starlink 31826

NORAD ID: 59768 Int'l Des: 2024-091 Owner: SPXS Country: US Constellation: starlink operational
LEOCIRCULAR

实时位置

正在加载3D地球...

关于 Starlink 31826

正在加载描述...

即将过境

Passes for default location (London). Set your location on the main map for personalized predictions.

高度历史

Loading altitude history...

两行轨道根数

1 59768U 24091R 26104.63992252 .00063759 00000-0 18340-2 0 9990
2 59768 53.1591 219.5408 0005473 352.9705 7.1220 15.35204517108510
Epoch: Apr 14, 2026 • Age: 17 hours

当前状态

高度 459.6 km
速度 7.64 km/s
星下点 -12.07°S, 123.67°W
发射日期 May 14, 2024
运行时间 1.9 years
类型 internet

技术详情

分类 Payload
质量 730.00 kg
干质量 700.00 kg
总质量 730.00 kg
长度 0.30 m
直径 4.10 m
跨度 29.00 m
形状 Box + pan
制造商 SPXS
平台类型 Starlink V2M
阶段状态 In Orbit
所有者/国家 SPXS/US

Most Searched